Statesville, NC

1:24 AM EDT on March 27, 2017 (GMT -0400)
Statesville Municipal

Weather History for KSVH - June, 2013

Change the Weather History Date:

Sunday, June 16, 2013

  Actual Average (KHKY) Record (KHKY)
Temperature  
Mean Temperature 72 °F -  
Max Temperature 82 °F 83 °F 95 °F (1981)
Min Temperature 63 °F 64 °F 50 °F (1961)
Cooling Degree Days 8    
Growing Degree Days 22 (Base 50)    
Moisture  
Dew Point 62 °F    
Average Humidity 68    
Maximum Humidity 86    
Minimum Humidity 51    
Precipitation  
Precipitation 0.00 in - - ()
Sea Level Pressure  
Sea Level Pressure 30.09 in    
Wind  
Wind Speed 4 mph (SSW)    
Max Wind Speed 9 mph    
Max Gust Speed -    
Visibility 10 miles    
Events      
Averages and records for this station are not official NWS values.
T = Trace of Precipitation, MM = Missing Value Source: NWS Daily Summary

Daily Weather History Graph

Daily Weather History Graph

Search for Another Location

Airport or City:

Trip Planner

Search our weather history database for the weather conditions in past years. The results will help you decide how hot, cold, wet, or windy it might be!

Date:

Astronomy

Jun. 16, 2013 Rise Set
Actual Time 6:07 AM EDT 8:41 PM EDT
Civil Twilight 5:37 AM EDT 9:12 PM EDT
Nautical Twilight 4:59 AM EDT 9:49 PM EDT
Astronomical Twilight 4:18 AM EDT 10:30 PM EDT
Moon 1:27 PM EDT (6/16) 12:58 AM EDT (6/16)
Length of Visible Light 15h 34m
Length of Day
14h 34m
Waxing Crescent, 49% of the Moon is Illuminated
Jun 16
Waxing Crescent
Jun 16
First Quarter
Jun 23
Full
Jun 30
Last Quarter
Jul 8
New

Hourly Weather History & Observations

Time (EDT) Temp. Heat Index Dew Point Humidity Pressure Visibility Wind Dir Wind Speed Gust Speed Precip Events Conditions
12:15 AM 69.4 °F - 59.2 °F 70% 30.11 in 10.0 mi Calm Calm - N/A   Clear
12:35 AM 66.9 °F - 59.7 °F 78% 30.11 in 10.0 mi SSW 3.5 mph - N/A   Clear
12:55 AM 65.3 °F - 60.1 °F 83% 30.11 in 10.0 mi Calm Calm - N/A   Clear
1:15 AM 66.2 °F - 59.2 °F 78% 30.11 in 10.0 mi Calm Calm - N/A   Clear
1:35 AM 64.8 °F - 59.2 °F 82% 30.11 in 10.0 mi SSW 3.5 mph - N/A   Clear
1:55 AM 63.7 °F - 59.4 °F 86% 30.11 in 10.0 mi SSW 3.5 mph - N/A   Clear
2:15 AM 64.9 °F - 58.8 °F 81% 30.10 in 10.0 mi South 3.5 mph - N/A   Scattered Clouds
2:35 AM 65.5 °F - 58.3 °F 77% 30.10 in 10.0 mi South 3.5 mph - N/A   Clear
2:55 AM 65.8 °F - 58.1 °F 76% 30.09 in 10.0 mi South 3.5 mph - N/A   Clear
3:15 AM 65.8 °F - 59.0 °F 79% 30.09 in 10.0 mi South 5.8 mph - N/A   Clear
3:35 AM 65.8 °F - 59.0 °F 79% 30.09 in 10.0 mi SSW 4.6 mph - N/A   Clear
3:55 AM 66.2 °F - 59.0 °F 78% 30.10 in 10.0 mi South 4.6 mph - N/A   Clear
4:15 AM 65.5 °F - 59.2 °F 80% 30.11 in 10.0 mi South 5.8 mph - N/A   Clear
4:35 AM 64.9 °F - 59.2 °F 82% 30.10 in 10.0 mi SSW 5.8 mph - N/A   Clear
4:55 AM 65.5 °F - 59.5 °F 81% 30.11 in 10.0 mi SSW 5.8 mph - N/A   Clear
5:15 AM 65.7 °F - 59.9 °F 82% 30.12 in 10.0 mi SSW 5.8 mph - N/A   Clear
5:35 AM 65.5 °F - 59.9 °F 82% 30.12 in 10.0 mi SSW 5.8 mph - N/A   Scattered Clouds
5:55 AM 65.1 °F - 59.9 °F 83% 30.12 in 10.0 mi SSW 5.8 mph - N/A   Scattered Clouds
6:15 AM 64.6 °F - 59.5 °F 84% 30.13 in 10.0 mi SSW 5.8 mph - N/A   Clear
6:35 AM 64.4 °F - 59.7 °F 85% 30.13 in 10.0 mi SSW 4.6 mph - N/A   Clear
6:55 AM 64.8 °F - 59.9 °F 84% 30.14 in 10.0 mi SSW 3.5 mph - N/A   Clear
7:15 AM 65.3 °F - 60.3 °F 84% 30.15 in 10.0 mi SSW 3.5 mph - N/A   Scattered Clouds
7:35 AM 65.7 °F - 60.8 °F 84% 30.15 in 10.0 mi Calm Calm - N/A   Scattered Clouds
7:55 AM 67.3 °F - 61.5 °F 82% 30.16 in 10.0 mi WSW 4.6 mph - N/A   Clear
8:15 AM 68.9 °F - 62.1 °F 79% 30.15 in 10.0 mi SSW 8.1 mph - N/A   Scattered Clouds
8:35 AM 69.6 °F - 62.6 °F 78% 30.16 in 10.0 mi WSW 5.8 mph - N/A   Scattered Clouds
8:55 AM 70.3 °F - 62.1 °F 75% 30.15 in 10.0 mi SW 9.2 mph - N/A   Clear
9:15 AM 71.8 °F - 62.8 °F 73% 30.15 in 10.0 mi SW 8.1 mph - N/A   Clear
9:35 AM 72.5 °F - 62.2 °F 70% 30.15 in 10.0 mi SW 8.1 mph - N/A   Clear
9:55 AM 74.3 °F - 62.6 °F 67% 30.15 in 10.0 mi SW 5.8 mph - N/A   Clear
10:15 AM 74.7 °F - 62.8 °F 66% 30.14 in 10.0 mi SW 8.1 mph - N/A   Clear
10:35 AM 75.9 °F - 62.4 °F 63% 30.14 in 10.0 mi SW 6.9 mph - N/A   Clear
10:55 AM 76.8 °F - 61.5 °F 59% 30.13 in 10.0 mi WSW 8.1 mph - N/A   Clear
11:38 AM 78.8 °F - 62.6 °F 57% 30.12 in 10.0 mi SSW 6.9 mph - N/A   Clear
12:01 PM 78.8 °F - 64.4 °F 61% 30.11 in 10.0 mi WSW 9.2 mph - N/A   Clear
12:18 PM 80.6 °F 82.3 °F 64.4 °F 58% 30.12 in 10.0 mi WSW 8.1 mph - N/A   Clear
12:38 PM 80.6 °F 82.3 °F 64.4 °F 58% 30.11 in 10.0 mi SSW 5.8 mph - N/A   Clear
1:00 PM 80.6 °F 82.3 °F 64.4 °F 58% 30.10 in 10.0 mi SSW 9.2 mph - N/A   Clear
1:18 PM 80.6 °F 82.3 °F 64.4 °F 58% 30.10 in 10.0 mi SW 5.8 mph - N/A   Scattered Clouds
1:39 PM 80.6 °F 81.8 °F 62.6 °F 54% 30.09 in 10.0 mi SSW 6.9 mph - N/A   Scattered Clouds
1:58 PM 82.4 °F 83.4 °F 62.6 °F 51% 30.09 in 10.0 mi SW 5.8 mph - N/A   Clear
2:18 PM 80.6 °F 81.8 °F 62.6 °F 54% 30.08 in 10.0 mi South 4.6 mph - N/A   Scattered Clouds
2:39 PM 82.4 °F 83.9 °F 64.4 °F 54% 30.08 in 10.0 mi SSW 8.1 mph - N/A   Scattered Clouds
2:59 PM 82.4 °F 83.4 °F 62.6 °F 51% 30.07 in 10.0 mi SSW 6.9 mph - N/A   Clear
3:19 PM 82.4 °F 83.4 °F 62.6 °F 51% 30.06 in 10.0 mi SSW 5.8 mph - N/A   Scattered Clouds
3:39 PM 82.4 °F 83.4 °F 62.6 °F 51% 30.06 in 10.0 mi SSW 9.2 mph - N/A   Scattered Clouds
3:58 PM 82.4 °F 83.4 °F 62.6 °F 51% 30.06 in 10.0 mi South 9.2 mph - N/A   Clear
4:19 PM 82.4 °F 83.4 °F 62.6 °F 51% 30.06 in 10.0 mi SSW 9.2 mph - N/A   Clear
4:40 PM 82.4 °F 83.4 °F 62.6 °F 51% 30.05 in 10.0 mi South 6.9 mph - N/A   Scattered Clouds
5:18 PM 82.4 °F 83.4 °F 62.6 °F 51% 30.05 in 10.0 mi SSW 8.1 mph - N/A   Clear
5:38 PM 82.4 °F 83.4 °F 62.6 °F 51% 30.05 in 10.0 mi South 6.9 mph - N/A   Clear
6:19 PM 82.4 °F 83.4 °F 62.6 °F 51% 30.04 in 10.0 mi South 6.9 mph - N/A   Clear
6:38 PM 80.6 °F 81.8 °F 62.6 °F 54% 30.04 in 10.0 mi South 5.8 mph - N/A   Clear
6:58 PM 78.8 °F - 62.6 °F 57% 30.04 in 10.0 mi SSW 3.5 mph - N/A   Clear
7:18 PM 78.8 °F - 62.6 °F 57% 30.04 in 10.0 mi SSW 3.5 mph - N/A   Clear
7:35 PM 78.3 °F - 63.7 °F 61% 30.04 in 10.0 mi SSW 3.5 mph - N/A   Clear
7:55 PM 77.5 °F - 63.7 °F 62% 30.04 in 10.0 mi Calm Calm - N/A   Clear
8:15 PM 77.0 °F - 63.7 °F 63% 30.04 in 10.0 mi South 3.5 mph - N/A   Clear
8:35 PM 76.5 °F - 63.5 °F 64% 30.04 in 10.0 mi SSW 3.5 mph - N/A   Clear
8:55 PM 75.4 °F - 63.5 °F 66% 30.05 in 10.0 mi SSW 3.5 mph - N/A   Clear
9:15 PM 75.4 °F - 63.3 °F 66% 30.05 in 10.0 mi Calm Calm - N/A   Clear
9:35 PM 74.5 °F - 63.1 °F 68% 30.05 in 10.0 mi South 3.5 mph - N/A   Clear
9:55 PM 74.5 °F - 63.1 °F 68% 30.06 in 10.0 mi Calm Calm - N/A   Clear
10:15 PM 73.9 °F - 63.1 °F 69% 30.05 in 10.0 mi SSW 3.5 mph - N/A   Clear
10:35 PM 74.3 °F - 63.0 °F 68% 30.06 in 10.0 mi SSW 3.5 mph - N/A   Clear
10:55 PM 73.9 °F - 63.1 °F 69% 30.06 in 10.0 mi SW 4.6 mph - N/A   Clear
11:15 PM 74.3 °F - 63.1 °F 68% 30.06 in 10.0 mi SSW 3.5 mph - N/A   Clear
11:35 PM 73.8 °F - 63.5 °F 70% 30.06 in 10.0 mi SSW 3.5 mph - N/A   Clear
11:55 PM 73.2 °F - 63.5 °F 71% 30.06 in 10.0 mi South 3.5 mph - N/A   Clear